Time,TemperatureF,DewpointF,PressureIn,WindDirection,WindDirectionDegrees,WindSpeedMPH,WindSpeedGustMPH,Humidity,HourlyPrecipIn,Conditions,Clouds,dailyrainin,SoftwareType,DateUTC
2013-05-22 00:01:00,55.7,23.1,29.76,East,82,0.0,10.0,28,0.00,,BKN230,0.00,VWS V14.01,2013-05-22 06:01:00,
2013-05-22 00:06:00,55.6,23.0,29.76,ENE,77,0.0,7.0,28,0.00,,BKN230,0.00,VWS V14.01,2013-05-22 06:06:00,
2013-05-22 00:11:00,55.3,23.6,29.76,ENE,75,0.0,7.0,29,0.00,,BKN230,0.00,VWS V14.01,2013-05-22 06:11:00,
2013-05-22 00:16:00,55.1,22.6,29.76,East,89,0.0,7.0,28,0.00,,BKN230,0.00,VWS V14.01,2013-05-22 06:16:00,
2013-05-22 00:21:00,55.1,22.6,29.76,ESE,105,5.0,7.0,28,0.00,,BKN230,0.00,VWS V14.01,2013-05-22 06:21:00,
2013-05-22 00:26:00,55.0,23.4,29.76,ESE,112,0.0,7.0,29,0.00,,BKN230,0.00,VWS V14.01,2013-05-22 06:26:00,
2013-05-22 00:31:00,54.8,23.2,29.76,East,79,0.0,0.0,29,0.00,,BKN230,0.00,VWS V14.01,2013-05-22 06:31:00,
2013-05-22 00:36:00,54.8,24.0,29.76,East,98,2.0,3.0,30,0.00,,SCT230,0.00,VWS V14.01,2013-05-22 06:36:00,
2013-05-22 00:41:00,54.7,23.9,29.76,East,91,2.0,7.0,30,0.00,,SCT230,0.00,VWS V14.01,2013-05-22 06:41:00,
2013-05-22 00:46:00,54.7,23.9,29.75,ESE,111,0.0,7.0,30,0.00,,SCT230,0.00,VWS V14.01,2013-05-22 06:46:00,
2013-05-22 00:51:00,54.5,23.7,29.75,East,81,1.0,7.0,30,0.00,,SCT230,0.00,VWS V14.01,2013-05-22 06:51:00,
2013-05-22 00:56:00,54.5,23.7,29.75,East,96,0.0,7.0,30,0.00,,SCT230,0.00,VWS V14.01,2013-05-22 06:56:00,
2013-05-22 01:01:00,54.4,24.4,29.76,East,79,1.0,7.0,31,0.00,,SCT230,0.00,VWS V14.01,2013-05-22 07:01:00,
2013-05-22 01:06:00,54.2,23.5,29.76,ESE,105,0.0,4.0,30,0.00,,SCT230,0.00,VWS V14.01,2013-05-22 07:06:00,
2013-05-22 01:11:00,54.1,24.2,29.76,East,82,6.0,9.0,31,0.00,,SCT230,0.00,VWS V14.01,2013-05-22 07:11:00,
2013-05-22 01:16:00,54.2,23.5,29.76,East,96,0.0,9.0,30,0.00,,SCT230,0.00,VWS V14.01,2013-05-22 07:16:00,
2013-05-22 01:21:00,54.2,23.5,29.76,SE,127,5.0,9.0,30,0.00,,SCT230,0.00,VWS V14.01,2013-05-22 07:21:00,
2013-05-22 01:26:00,54.2,23.5,29.76,East,88,0.0,9.0,30,0.00,,SCT230,0.00,VWS V14.01,2013-05-22 07:26:00,
2013-05-22 01:31:00,54.1,23.4,29.76,East,82,6.0,9.0,30,0.00,,SCT230,0.00,VWS V14.01,2013-05-22 07:31:00,
2013-05-22 01:36:00,54.1,24.2,29.76,East,79,4.0,8.0,31,0.00,,SCT230,0.00,VWS V14.01,2013-05-22 07:36:00,
2013-05-22 01:41:00,53.9,24.0,29.76,East,94,5.0,9.0,31,0.00,,SCT230,0.00,VWS V14.01,2013-05-22 07:41:00,
2013-05-22 01:46:00,53.6,24.5,29.76,ENE,77,0.0,9.0,32,0.00,,SCT230,0.00,VWS V14.01,2013-05-22 07:46:00,
2013-05-22 01:51:00,53.3,24.2,29.76,ENE,77,0.0,9.0,32,0.00,,SCT230,0.00,VWS V14.01,2013-05-22 07:51:00,
2013-05-22 01:56:00,53.2,24.1,29.76,East,89,3.0,9.0,32,0.00,,SCT230,0.00,VWS V14.01,2013-05-22 07:56:00,
2013-05-22 02:01:00,53.2,24.1,29.77,East,82,0.0,9.0,32,0.00,,SCT230,0.00,VWS V14.01,2013-05-22 08:01:00,
2013-05-22 02:06:00,53.1,24.8,29.77,East,93,0.0,6.0,33,0.00,,SCT230,0.00,VWS V14.01,2013-05-22 08:06:00,
2013-05-22 02:11:00,52.9,23.9,29.77,East,80,2.0,6.0,32,0.00,,SCT230,0.00,VWS V14.01,2013-05-22 08:11:00,
2013-05-22 02:16:00,52.8,23.8,29.77,East,82,0.0,6.0,32,0.00,,SCT230,0.00,VWS V14.01,2013-05-22 08:16:00,
2013-05-22 02:21:00,52.8,23.0,29.77,East,94,3.0,9.0,31,0.00,,SCT230,0.00,VWS V14.01,2013-05-22 08:21:00,
2013-05-22 02:26:00,52.8,23.8,29.77,East,84,0.0,9.0,32,0.00,,SCT230,0.00,VWS V14.01,2013-05-22 08:26:00,
2013-05-22 02:31:00,52.5,24.2,29.77,ENE,77,0.0,9.0,33,0.00,,SCT230,0.00,VWS V14.01,2013-05-22 08:31:00,
2013-05-22 02:36:00,52.3,23.3,29.77,ESE,105,4.0,5.0,32,0.00,,FEW220,0.00,VWS V14.01,2013-05-22 08:36:00,
2013-05-22 02:41:00,52.3,23.3,29.77,East,80,1.0,7.0,32,0.00,,FEW220,0.00,VWS V14.01,2013-05-22 08:41:00,
2013-05-22 02:46:00,52.2,24.0,29.77,ENE,72,0.0,7.0,33,0.00,,FEW220,0.00,VWS V14.01,2013-05-22 08:46:00,
2013-05-22 02:51:00,52.0,24.5,29.77,East,82,0.0,7.0,34,0.00,,FEW220,0.00,VWS V14.01,2013-05-22 08:51:00,
2013-05-22 02:56:00,51.7,24.3,29.77,East,98,0.0,7.0,34,0.00,,FEW220,0.00,VWS V14.01,2013-05-22 08:56:00,
2013-05-22 03:01:00,51.4,24.0,29.76,ESE,112,4.0,7.0,34,0.00,,FEW220,0.00,VWS V14.01,2013-05-22 09:01:00,
2013-05-22 03:06:00,51.3,24.6,29.76,East,95,0.0,3.0,35,0.00,,FEW220,0.00,VWS V14.01,2013-05-22 09:06:00,
2013-05-22 03:11:00,51.1,25.1,29.76,East,98,0.0,3.0,36,0.00,,FEW220,0.00,VWS V14.01,2013-05-22 09:11:00,
2013-05-22 03:16:00,50.8,24.8,29.76,ESE,105,0.0,3.0,36,0.00,,FEW220,0.00,VWS V14.01,2013-05-22 09:16:00,
2013-05-22 03:21:00,50.5,24.6,29.76,East,79,0.0,5.0,36,0.00,,FEW220,0.00,VWS V14.01,2013-05-22 09:21:00,
2013-05-22 03:26:00,50.4,25.1,29.76,ESE,103,0.0,5.0,37,0.00,,FEW220,0.00,VWS V14.01,2013-05-22 09:26:00,
2013-05-22 03:31:00,50.1,24.9,29.76,East,85,1.0,5.0,37,0.00,,FEW220,0.00,VWS V14.01,2013-05-22 09:31:00,
2013-05-22 03:36:00,49.9,25.3,29.76,East,94,0.0,1.0,38,0.00,,FEW240,0.00,VWS V14.01,2013-05-22 09:36:00,
2013-05-22 03:41:00,49.8,25.9,29.76,ESE,102,0.0,1.0,39,0.00,,FEW240,0.00,VWS V14.01,2013-05-22 09:41:00,
2013-05-22 03:46:00,49.5,25.6,29.77,East,94,1.0,1.0,39,0.00,,FEW240,0.00,VWS V14.01,2013-05-22 09:46:00,
2013-05-22 03:51:00,49.2,25.3,29.77,East,82,0.0,3.0,39,0.00,,FEW240,0.00,VWS V14.01,2013-05-22 09:51:00,
2013-05-22 03:56:00,48.9,25.0,29.77,ESE,106,0.0,3.0,39,0.00,,FEW240,0.00,VWS V14.01,2013-05-22 09:56:00,
2013-05-22 04:01:00,48.8,25.6,29.78,ENE,77,0.0,3.0,40,0.00,,FEW240,0.00,VWS V14.01,2013-05-22 10:01:00,
2013-05-22 04:06:00,48.6,25.4,29.78,East,86,0.0,2.0,40,0.00,,FEW240,0.00,VWS V14.01,2013-05-22 10:06:00,
2013-05-22 04:11:00,48.3,25.7,29.78,East,84,0.0,2.0,41,0.00,,FEW240,0.00,VWS V14.01,2013-05-22 10:11:00,
2013-05-22 04:16:00,48.2,25.6,29.79,East,84,0.0,2.0,41,0.00,,FEW240,0.00,VWS V14.01,2013-05-22 10:16:00,
2013-05-22 04:21:00,47.9,25.9,29.79,East,89,0.0,2.0,42,0.00,,FEW240,0.00,VWS V14.01,2013-05-22 10:21:00,
2013-05-22 04:26:00,47.7,25.8,29.79,ESE,104,0.0,2.0,42,0.00,,FEW240,0.00,VWS V14.01,2013-05-22 10:26:00,
2013-05-22 04:31:00,47.4,25.5,29.79,East,101,0.0,2.0,42,0.00,,FEW240,0.00,VWS V14.01,2013-05-22 10:31:00,
2013-05-22 04:36:00,47.1,25.2,29.79,East,86,0.0,1.0,42,0.00,,SCT240,0.00,VWS V14.01,2013-05-22 10:36:00,
2013-05-22 04:41:00,46.8,25.5,29.79,SE,129,0.0,3.0,43,0.00,,SCT240,0.00,VWS V14.01,2013-05-22 10:41:00,
2013-05-22 04:46:00,46.7,25.4,29.80,ENE,72,0.0,3.0,43,0.00,,SCT240,0.00,VWS V14.01,2013-05-22 10:46:00,
2013-05-22 04:51:00,46.5,25.8,29.80,ENE,72,0.0,3.0,44,0.00,,SCT240,0.00,VWS V14.01,2013-05-22 10:51:00,
2013-05-22 04:56:00,46.4,25.1,29.80,East,91,0.0,3.0,43,0.00,,SCT240,0.00,VWS V14.01,2013-05-22 10:56:00,
2013-05-22 05:01:00,46.2,25.5,29.80,East,91,0.0,4.0,44,0.00,,SCT240,0.00,VWS V14.01,2013-05-22 11:01:00,
2013-05-22 05:06:00,46.2,25.5,29.80,ESE,110,0.0,1.0,44,0.00,,SCT240,0.00,VWS V14.01,2013-05-22 11:06:00,
2013-05-22 05:11:00,46.1,26.0,29.80,East,89,0.0,1.0,45,0.00,,SCT240,0.00,VWS V14.01,2013-05-22 11:11:00,
2013-05-22 05:16:00,46.1,25.4,29.80,East,89,0.0,1.0,44,0.00,,SCT240,0.00,VWS V14.01,2013-05-22 11:16:00,
2013-05-22 05:21:00,46.0,25.9,29.80,East,94,0.0,1.0,45,0.00,,SCT240,0.00,VWS V14.01,2013-05-22 11:21:00,
2013-05-22 05:26:00,46.0,25.9,29.80,East,90,0.0,1.0,45,0.00,,SCT240,0.00,VWS V14.01,2013-05-22 11:26:00,
2013-05-22 05:31:00,45.8,25.7,29.80,East,101,0.0,4.0,45,0.00,,SCT240,0.00,VWS V14.01,2013-05-22 11:31:00,
2013-05-22 05:36:00,45.8,25.7,29.80,East,94,0.0,1.0,45,0.00,,FEW250,0.00,VWS V14.01,2013-05-22 11:36:00,
2013-05-22 05:41:00,45.8,25.1,29.80,East,95,0.0,3.0,44,0.00,,FEW250,0.00,VWS V14.01,2013-05-22 11:41:00,
2013-05-22 05:46:00,45.8,25.7,29.80,ENE,77,0.0,3.0,45,0.00,,FEW250,0.00,VWS V14.01,2013-05-22 11:46:00,
2013-05-22 05:51:00,45.8,25.1,29.80,East,101,0.0,3.0,44,0.00,,FEW250,0.00,VWS V14.01,2013-05-22 11:51:00,
2013-05-22 05:56:00,45.8,25.7,29.80,East,86,0.0,3.0,45,0.00,,FEW250,0.00,VWS V14.01,2013-05-22 11:56:00,
2013-05-22 06:01:00,45.7,26.1,29.81,ESE,102,1.0,3.0,46,0.00,,FEW250,0.00,VWS V14.01,2013-05-22 12:01:00,
2013-05-22 06:06:00,45.7,25.0,29.81,East,91,1.0,1.0,44,0.00,,FEW250,0.00,VWS V14.01,2013-05-22 12:06:00,
2013-05-22 06:11:00,45.8,25.1,29.81,East,88,0.0,2.0,44,0.00,,FEW250,0.00,VWS V14.01,2013-05-22 12:11:00,
2013-05-22 06:16:00,45.7,25.0,29.81,East,89,1.0,2.0,44,0.00,,FEW250,0.00,VWS V14.01,2013-05-22 12:16:00,
2013-05-22 06:21:00,45.5,25.4,29.81,East,85,0.0,4.0,45,0.00,,FEW250,0.00,VWS V14.01,2013-05-22 12:21:00,
2013-05-22 06:26:00,45.4,25.3,29.81,East,81,0.0,4.0,45,0.00,,FEW250,0.00,VWS V14.01,2013-05-22 12:26:00,
2013-05-22 06:31:00,45.2,25.7,29.82,SE,130,4.0,5.0,46,0.00,,FEW250,0.00,VWS V14.01,2013-05-22 12:31:00,
2013-05-22 06:36:00,44.9,24.9,29.82,ENE,63,0.0,1.0,45,0.00,,SCT260,0.00,VWS V14.01,2013-05-22 12:36:00,
2013-05-22 06:41:00,44.8,25.3,29.82,ENE,67,0.0,1.0,46,0.00,,SCT260,0.00,VWS V14.01,2013-05-22 12:41:00,
2013-05-22 06:46:00,44.8,25.3,29.82,ENE,73,0.0,6.0,46,0.00,,SCT260,0.00,VWS V14.01,2013-05-22 12:46:00,
2013-05-22 06:51:00,44.9,25.4,29.82,East,83,0.0,6.0,46,0.00,,SCT260,0.00,VWS V14.01,2013-05-22 12:51:00,
2013-05-22 06:56:00,45.1,25.6,29.82,East,96,0.0,6.0,46,0.00,,SCT260,0.00,VWS V14.01,2013-05-22 12:56:00,
2013-05-22 07:01:00,45.2,25.7,29.82,East,82,0.0,6.0,46,0.00,,SCT260,0.00,VWS V14.01,2013-05-22 13:01:00,
2013-05-22 07:06:00,45.5,26.5,29.82,ENE,71,0.0,1.0,47,0.00,,SCT260,0.00,VWS V14.01,2013-05-22 13:06:00,
2013-05-22 07:11:00,45.8,26.2,29.82,East,88,0.0,1.0,46,0.00,,SCT260,0.00,VWS V14.01,2013-05-22 13:11:00,
2013-05-22 07:16:00,46.1,25.4,29.82,ESE,122,0.0,1.0,44,0.00,,SCT260,0.00,VWS V14.01,2013-05-22 13:16:00,
2013-05-22 07:21:00,46.1,26.5,29.82,ENE,64,0.0,4.0,46,0.00,,SCT260,0.00,VWS V14.01,2013-05-22 13:21:00,
2013-05-22 07:26:00,46.1,25.4,29.82,East,80,0.0,5.0,44,0.00,,SCT260,0.00,VWS V14.01,2013-05-22 13:26:00,
2013-05-22 07:31:00,46.1,26.0,29.83,East,88,0.0,5.0,45,0.00,,SCT260,0.00,VWS V14.01,2013-05-22 13:31:00,
2013-05-22 07:36:00,46.1,26.0,29.83,ENE,63,0.0,1.0,45,0.00,,SCT260,0.00,VWS V14.01,2013-05-22 13:36:00,
2013-05-22 07:41:00,46.1,26.0,29.83,ESE,117,0.0,2.0,45,0.00,,SCT260,0.00,VWS V14.01,2013-05-22 13:41:00,
2013-05-22 07:46:00,46.1,26.0,29.84,East,90,0.0,4.0,45,0.00,,SCT260,0.00,VWS V14.01,2013-05-22 13:46:00,
2013-05-22 07:51:00,46.1,25.4,29.84,ENE,78,0.0,4.0,44,0.00,,SCT260,0.00,VWS V14.01,2013-05-22 13:51:00,
2013-05-22 07:56:00,46.1,25.4,29.84,East,91,0.0,4.0,44,0.00,,SCT260,0.00,VWS V14.01,2013-05-22 13:56:00,
2013-05-22 08:01:00,46.1,26.0,29.84,ENE,78,0.0,5.0,45,0.00,,SCT260,0.00,VWS V14.01,2013-05-22 14:01:00,
2013-05-22 08:06:00,46.1,26.0,29.84,ENE,75,0.0,1.0,45,0.00,,BKN250,0.00,VWS V14.01,2013-05-22 14:06:00,
2013-05-22 08:11:00,46.0,25.9,29.84,ENE,76,0.0,1.0,45,0.00,,BKN250,0.00,VWS V14.01,2013-05-22 14:11:00,
2013-05-22 08:16:00,46.0,26.4,29.85,ESE,123,0.0,1.0,46,0.00,,BKN250,0.00,VWS V14.01,2013-05-22 14:16:00,
2013-05-22 08:21:00,45.8,26.7,29.85,East,82,0.0,1.0,47,0.00,,BKN250,0.00,VWS V14.01,2013-05-22 14:21:00,
2013-05-22 08:26:00,45.7,26.6,29.85,East,99,0.0,1.0,47,0.00,,BKN250,0.00,VWS V14.01,2013-05-22 14:26:00,
2013-05-22 08:31:00,45.5,27.0,29.86,East,84,0.0,5.0,48,0.00,,BKN250,0.00,VWS V14.01,2013-05-22 14:31:00,
2013-05-22 08:36:00,45.4,27.4,29.86,East,101,0.0,1.0,49,0.00,,BKN220,0.00,VWS V14.01,2013-05-22 14:36:00,
2013-05-22 08:41:00,45.2,27.2,29.86,East,89,0.0,1.0,49,0.00,,BKN220,0.00,VWS V14.01,2013-05-22 14:41:00,
2013-05-22 08:46:00,45.1,27.6,29.87,East,80,1.0,1.0,50,0.00,,BKN220,0.00,VWS V14.01,2013-05-22 14:46:00,
2013-05-22 08:51:00,44.9,28.4,29.87,East,82,0.0,1.0,52,0.00,,BKN220,0.00,VWS V14.01,2013-05-22 14:51:00,
2013-05-22 08:56:00,44.9,27.9,29.87,East,82,0.0,1.0,51,0.00,,BKN220,0.00,VWS V14.01,2013-05-22 14:56:00,
2013-05-22 09:01:00,44.8,28.3,29.88,East,82,0.0,1.0,52,0.00,,BKN220,0.00,VWS V14.01,2013-05-22 15:01:00,
2013-05-22 09:06:00,44.8,28.7,29.88,East,81,0.0,1.0,53,0.00,,BKN220,0.00,VWS V14.01,2013-05-22 15:06:00,
2013-05-22 09:11:00,44.9,28.8,29.88,East,81,0.0,1.0,53,0.00,,BKN220,0.00,VWS V14.01,2013-05-22 15:11:00,
2013-05-22 09:16:00,44.9,28.4,29.89,East,89,0.0,2.0,52,0.00,,BKN220,0.00,VWS V14.01,2013-05-22 15:16:00,
2013-05-22 09:21:00,44.9,28.8,29.89,ENE,76,0.0,2.0,53,0.00,,BKN220,0.00,VWS V14.01,2013-05-22 15:21:00,
2013-05-22 09:26:00,45.1,29.0,29.89,East,84,0.0,4.0,53,0.00,,BKN220,0.00,VWS V14.01,2013-05-22 15:26:00,
2013-05-22 09:31:00,45.1,28.5,29.89,East,95,0.0,4.0,52,0.00,,BKN220,0.00,VWS V14.01,2013-05-22 15:31:00,
2013-05-22 09:36:00,45.4,29.3,29.89,East,95,0.0,1.0,53,0.00,,-RA,0.00,VWS V14.01,2013-05-22 15:36:00,
2013-05-22 09:41:00,45.7,29.6,29.89,East,95,0.0,1.0,53,0.00,,-RA,0.00,VWS V14.01,2013-05-22 15:41:00,
2013-05-22 09:46:00,46.1,29.9,29.89,East,83,0.0,1.0,53,0.00,,-RA,0.00,VWS V14.01,2013-05-22 15:46:00,
2013-05-22 09:51:00,46.7,30.0,29.89,East,90,1.0,2.0,52,0.00,,-RA,0.00,VWS V14.01,2013-05-22 15:51:00,
2013-05-22 09:56:00,47.0,29.8,29.89,East,86,0.0,6.0,51,0.00,,-RA,0.00,VWS V14.01,2013-05-22 15:56:00,
2013-05-22 10:01:00,47.3,29.6,29.88,ESE,108,0.0,6.0,50,0.00,,-RA,0.00,VWS V14.01,2013-05-22 16:01:00,
2013-05-22 10:06:00,47.3,30.1,29.88,East,80,0.0,1.0,51,0.00,,-RA,0.00,VWS V14.01,2013-05-22 16:06:00,
2013-05-22 10:11:00,47.1,29.4,29.88,East,91,0.0,3.0,50,0.00,,-RA,0.00,VWS V14.01,2013-05-22 16:11:00,
2013-05-22 10:16:00,47.1,29.9,29.89,East,89,0.0,4.0,51,0.00,,-RA,0.00,VWS V14.01,2013-05-22 16:16:00,
2013-05-22 10:21:00,47.1,29.4,29.89,ENE,77,3.0,7.0,50,0.00,,-RA,0.00,VWS V14.01,2013-05-22 16:21:00,
2013-05-22 10:26:00,47.1,29.9,29.89,East,83,0.0,7.0,51,0.00,,-RA,0.00,VWS V14.01,2013-05-22 16:26:00,
2013-05-22 10:31:00,47.0,30.3,29.91,ENE,78,0.0,7.0,52,0.00,,-RA,0.00,VWS V14.01,2013-05-22 16:31:00,
2013-05-22 10:36:00,46.8,30.6,29.91,East,94,0.0,9.0,53,0.00,,-RA,0.00,VWS V14.01,2013-05-22 16:36:00,
2013-05-22 10:41:00,46.7,31.0,29.91,ESE,120,0.0,9.0,54,0.00,,-RA,0.00,VWS V14.01,2013-05-22 16:41:00,
2013-05-22 10:45:00,46.8,31.0,29.91,East,83,0.0,9.0,54,0.00,,-RA,0.00,VWS V14.01,2013-05-22 16:45:00,
2013-05-22 10:50:00,47.0,31.7,29.91,ENE,77,0.0,9.0,55,0.00,,-RA,0.00,VWS V14.01,2013-05-22 16:50:00,
2013-05-22 10:55:00,46.7,31.9,29.91,East,80,0.0,9.0,56,0.00,,-RA,0.00,VWS V14.01,2013-05-22 16:55:00,
2013-05-22 11:00:00,46.5,33.0,29.91,South,183,0.0,9.0,59,0.00,,-RA,0.00,VWS V14.01,2013-05-22 17:00:00,
2013-05-22 11:05:00,46.1,33.4,29.91,East,83,0.0,2.0,61,0.00,,RA,0.00,VWS V14.01,2013-05-22 17:05:00,
2013-05-22 11:10:00,45.8,33.9,29.91,East,89,0.0,2.0,63,0.00,,RA,0.00,VWS V14.01,2013-05-22 17:10:00,
2013-05-22 11:15:00,45.7,35.4,29.93,ESE,107,0.0,2.0,67,0.00,,RA,0.00,VWS V14.01,2013-05-22 17:15:00,
2013-05-22 11:20:00,45.2,35.7,29.93,East,98,0.0,3.0,69,0.00,,RA,0.00,VWS V14.01,2013-05-22 17:20:00,
2013-05-22 11:25:00,44.9,36.4,29.93,East,89,0.0,3.0,72,0.00,,RA,0.00,VWS V14.01,2013-05-22 17:25:00,
2013-05-22 11:30:00,44.2,37.1,29.94,ESE,107,0.0,3.0,76,0.00,,RA,0.00,VWS V14.01,2013-05-22 17:30:00,
2013-05-22 11:35:00,43.9,37.5,29.94,East,91,1.0,1.0,78,0.00,,RA,0.00,VWS V14.01,2013-05-22 17:35:00,
2013-05-22 11:40:00,43.6,37.5,29.94,East,83,0.0,1.0,79,0.00,,RA,0.00,VWS V14.01,2013-05-22 17:40:00,
2013-05-22 11:45:00,43.3,37.9,29.95,East,94,0.0,1.0,81,0.00,,RA,0.00,VWS V14.01,2013-05-22 17:45:00,
2013-05-22 11:50:00,43.2,38.1,29.95,ESE,105,0.0,1.0,82,0.00,,RA,0.00,VWS V14.01,2013-05-22 17:50:00,
2013-05-22 11:55:00,42.9,37.8,29.95,East,84,0.0,1.0,82,0.00,,RA,0.00,VWS V14.01,2013-05-22 17:55:00,
2013-05-22 12:00:00,42.9,38.1,29.95,East,88,0.0,1.0,83,0.00,,RA,0.00,VWS V14.01,2013-05-22 18:00:00,
2013-05-22 12:05:00,42.9,38.1,29.95,ESE,111,0.0,1.0,83,0.00,,-RA,0.00,VWS V14.01,2013-05-22 18:05:00,
2013-05-22 12:10:00,43.1,38.6,29.95,East,97,0.0,1.0,84,0.00,,-RA,0.00,VWS V14.01,2013-05-22 18:10:00,
2013-05-22 12:15:00,43.1,38.3,29.96,NNE,14,0.0,2.0,83,0.00,,-RA,0.00,VWS V14.01,2013-05-22 18:15:00,
2013-05-22 12:20:00,43.3,38.5,29.96,ENE,65,0.0,2.0,83,0.00,,-RA,0.00,VWS V14.01,2013-05-22 18:20:00,
2013-05-22 12:25:00,43.3,38.2,29.96,East,94,0.0,5.0,82,0.00,,-RA,0.00,VWS V14.01,2013-05-22 18:25:00,
2013-05-22 12:30:00,43.3,38.2,29.97,East,91,0.0,5.0,82,0.00,,-RA,0.00,VWS V14.01,2013-05-22 18:30:00,
2013-05-22 12:35:00,43.3,38.2,29.97,East,101,1.0,1.0,82,0.00,,-RA,0.00,VWS V14.01,2013-05-22 18:35:00,
2013-05-22 12:40:00,43.2,38.1,29.97,SE,125,2.0,3.0,82,0.00,,-RA,0.00,VWS V14.01,2013-05-22 18:40:00,
2013-05-22 12:45:00,42.9,38.1,29.97,ESE,105,0.0,6.0,83,0.00,,-RA,0.00,VWS V14.01,2013-05-22 18:45:00,
2013-05-22 12:50:00,42.8,38.0,29.97,East,91,0.0,6.0,83,0.00,,-RA,0.00,VWS V14.01,2013-05-22 18:50:00,
2013-05-22 12:55:00,42.9,38.1,29.97,SE,130,0.0,6.0,83,0.00,,-RA,0.00,VWS V14.01,2013-05-22 18:55:00,
2013-05-22 13:00:00,42.9,37.8,29.97,East,91,0.0,6.0,82,0.00,,-RA,0.00,VWS V14.01,2013-05-22 19:00:00,
2013-05-22 13:05:00,42.9,38.1,29.97,East,83,0.0,1.0,83,0.00,,-RA,0.00,VWS V14.01,2013-05-22 19:05:00,
2013-05-22 13:10:00,43.1,38.9,29.97,ESE,106,0.0,2.0,85,0.00,,-RA,0.00,VWS V14.01,2013-05-22 19:10:00,
2013-05-22 13:15:00,43.2,39.0,29.97,ENE,72,0.0,2.0,85,0.00,,-RA,0.00,VWS V14.01,2013-05-22 19:15:00,
2013-05-22 13:20:00,43.5,39.0,29.97,East,82,0.0,2.0,84,0.00,,-RA,0.00,VWS V14.01,2013-05-22 19:20:00,
2013-05-22 13:25:00,43.6,38.8,29.97,East,85,0.0,2.0,83,0.00,,-RA,0.00,VWS V14.01,2013-05-22 19:25:00,
2013-05-22 13:30:00,43.8,38.7,29.98,East,82,0.0,2.0,82,0.00,,-RA,0.00,VWS V14.01,2013-05-22 19:30:00,
2013-05-22 13:35:00,43.6,38.2,29.98,East,86,0.0,1.0,81,0.00,,-RA,0.00,VWS V14.01,2013-05-22 19:35:00,
2013-05-22 13:40:00,43.5,38.4,29.98,ENE,69,0.0,2.0,82,0.00,,-RA,0.00,VWS V14.01,2013-05-22 19:40:00,
2013-05-22 13:45:00,43.6,39.1,29.97,NE,35,0.0,2.0,84,0.00,,-RA,0.00,VWS V14.01,2013-05-22 19:45:00,
2013-05-22 13:50:00,43.6,39.1,29.97,ENE,75,0.0,2.0,84,0.00,,-RA,0.00,VWS V14.01,2013-05-22 19:50:00,
2013-05-22 13:55:00,43.6,39.4,29.97,ENE,68,0.0,2.0,85,0.01,,-RA,0.01,VWS V14.01,2013-05-22 19:55:00,
2013-05-22 14:00:00,43.8,39.9,29.97,East,99,0.0,2.0,86,0.01,,-RA,0.01,VWS V14.01,2013-05-22 20:00:00,